Showing default

EOS-8, 60454

Orbit data source: Space-Track

EOS-8, 60454 is a payload satellite owned by ISRO (IN) in LEO that was launched on Fri, 16 Aug 2024 UTC via an SSLV launch vehicle from the Sirharikota (SRI). Payloads include a variety of satellites, spacecraft, and rockets equipped with specific instruments for various scientific and technological missions. These include communications satellites like Starlink; space stations such as the ISS; scientific satellites like the Hubble; Earth observation satellites from companies like Planet Labs, Umbra, and HawkEye 360; GPS; miniature CubeSats for education and research; and military/defense satellites.

Loading next visibility...
EOS-8 details
Identifier
60454, 2024-147A
Orbit
LEO
Last TLE update10 hours ago
Origin
Flag of INISRO (IN / IND)
ManufacturerISRO SAC/Banga
MissionOperational spacecraft
Bus & MotorIMS-1, Unknown motor
Mass176 kg wet, ~176 kg dry
Launch date (UTC)
2024-08-16 (4 months ago)
Launch vehicle
SSLV
Launch site
Sirharikota (SRI)
Object type
Payload
Rocket body
Debris
Shape & HBRUnknown
Radar Cross SectionLarge (>1 m²)

Expand to show TLE details & history

TLE from 10 hours ago
0 EOS-8
1 60454U 24147A   24361.00189442  .00032054  00000-0  84403-3 0  9997
2 60454  37.3791 200.6340 0005196 316.6858  43.3495 15.37671192 20264
Epoch: 2024-12-26T00:02Z
Definitive object data (Epoch: 2024-12-26T00:02:43.677Z)
Latitude-0°
Longitude104.96446°
Altitude449.572 km
Speed7.646 km/s
True Right ascension13h 22m 32s
True Declination0° 00' 00"
Sunlit
Object was in daylight at TLE epoch
Visualization TLE readout
Latitude28.95155°
Longitude-123.67107°
Altitude456.163 km
Speed7.642 km/s
Apparent Right ascension21h 45m 28s
Apparent Declination-4° 07' 41"
Sunlit
Object is in daylight
Visualization observer readout
Local Sidereal Time09:17:56
Azimuth348.357° N
Elevation-53.675°
Doppler factor1
Orbital elements
Apogee altitude459.437 km
Perigee altitude452.335 km
Semi-major axis6,834.023 km
Eccentricity0.0005196
Inclination37.3791°
RAAN200.634°
Arg. of periapsis316.6858°
True anomaly43.39039°
Mean anomaly43.3495°
Eccentric anomaly43.36994°
Mean motion3.84174 °/min
BSTAR0.00084403
Orbital period93.71 mins
Loading maneuver chart data...
Loading historical data...
Loading historical data...
Loading historical data...
Loading historical data...
Loading historical data...
Loading historical data...
Loading historical data...
Other satellites on launch #147 in the year 2024 (2024-08-16 UTC)

EOS-8 Visibility forecast

Observer location: undefined°, undefined

Span
Click to sort rows by Start time (UTC) header in descending order
Start Az.
Max El. time (UTC)
Max El. Az.
Max El.
End time (UTC)
End Az.
5 mins2024-12-26 17:25:49.989Z209.4° SW2024-12-26 17:27:49.989Z167.195° S23.468°2024-12-26 17:30:49.989Z103.882° ESE
5 mins2024-12-26 19:04:49.989Z239.516° WSW2024-12-26 19:06:49.989Z147.88° SSE37.559°2024-12-26 19:09:49.989Z97.527° ESE
5 mins2024-12-26 20:42:49.989Z255.368° W2024-12-26 20:44:49.989Z196.528° SSW35.533°2024-12-26 20:47:49.989Z119.56° SE
|